Location: *
(42.3442°N, 9.2072°E)
Time: 15:54:03
(UTC+00:00)

Cosmos 1763 Rocket - Pass Details

Date: 09 April 2020
Orbit: 734 x 779 km, 74.0° (Epoch: 28 May)

Event Time Altitude Azimuth Distance (km) Brightness Sun altitude
Rises 19:43:24 0° 347° (NNW) 3,222 7.4 -18.9°
Reaches altitude 10° 19:46:00 10° 357° (N) 2,285 6.4 -19.3°
Maximum altitude 19:50:43 34° 62° (ENE) 1,208 4.2 -20.0°
Enters shadow 19:51:27 33° 80° (E) 1,244 4.2 -20.1°
